星链-6106 (STARLINK-6106 )

导读 | 星芒AI

STARLINK-6106 是 SpaceX Starlink 卫星互联网项目中的一颗低轨通信卫星。该卫星属于 Starlink 群体部署的一部分,旨在为全球用户提供高速、低延迟的互联网服务。它运行在约 550 公里的近地轨道上,采用先进的通信技术,支持宽带数据传输。STARLINK-6106 于 2023 年由猎鹰 9 号火箭发射入轨,是 SpaceX 扩展其全球卫星网络、提升网络覆盖与性能的重要组成部分。

基本信息
目录编号:
57154
目录名称:
STARLINK-6106
国际标识:
2023-090BF
轨道中心:
EARTH
卫星名称:
星链-6106
卫星全名:
星链-6106 (STARLINK-6106 )
卫星状态:
在轨 (已飞行865 天)
发射日期:
2023-06-23 UTC
国别 :
美国 (US)
星等 :
--
轨道信息
数据来源 国际轨道数据 AOE轨道数据
星历时间 2025-11-04T04:09:18+0800
4小时前
查看轨道信息
2025-10-28T17:00:00+0800
6天前
查看轨道信息
半长轴 6937.214km 6937.211km
偏心率 0.0000937 0.0001115
轨道倾角 43.002° 43.003°
近地点辐角 268.815° 260.439°
升交点赤经 225.340° 260.470°
平近点角 91.259° 10.656°
近地点 558.428km 558.302km
远地点 559.73km 559.85km
周期 95.838分钟 95.838分钟
每日圈数 15.025371 15.025378
详细信息
固有亮度:
5
最大亮度:
2.4
卫星平台:
Starlink v1.5
覆盖范围:
全球
运营商:
太空探索技术公司
运营商所在国:
美国
制造商(研发单位):
太空探索技术公司
制造商所在国:
美国
使用方式:
暂无
卫星简介
星链(Starlink)计划是由太空探索技术公司(SpaceX)提出的一个巨型低轨卫星互联网星座项目,计划在2019年至2024年间在太空搭建由约1.2万颗卫星组成的“星链”网络,其中1584颗将部署在地球上空550千米处的近地轨道,并从2020年开始工作。该卫星仍在工作。
2D轨道图
3D轨道图
轨道高度分析图
轨道倾角分析图
轨道综合分析图
查看轨道综合分析图